User: anonymous   Login
Location: Oberwangen
(47.4286°N, 8.9679°E)
Time: 10:27:10
(UTC+00:00)
Language:

Cosmos 1725 Rocket - Orbit

View from above orbital plane
View from above orbital plane
View from above satellite
View from above satellite

Ground track
Ground track

The orbit data is extracted from the following two-line orbital elements,

1 16494U 86005B   21260.51288088  .00000029  00000-0  14559-4 0  9993
2 16494  82.9361 356.4073 0018927 210.7141 160.7892 13.76515394791617
Epoch (UTC): 17 September 2021 12:18:32
Eccentricity: 0.0018927
inclination: 82.9361°
perigee height: 962 km
apogee height: 990 km
right ascension of ascending node: 356.4073°
argument of perigee: 210.7141°
revolutions per day: 13.76515394
mean anomaly at epoch: 160.7892°
orbit number at epoch: 79161

The dashed part of the orbit path shows where the satellite is in the earth's shadow,  

DLR